Volver al catálogo

STARLINK-3332

ActivoComunicacionesVLEO
NORAD 50825·PAYLOAD·🇺🇸 United States

Lanzado Jan 6, 2022 desde Cape Canaveral Space Force Station

Loading…

Próximos Pases (próximas 24 horas)

TLE

ActualizadoSource: CelesTrak SupGP

Época: Sep 14, 2026, 21:37 UTC

1 50825C 22001Y   26257.90118056  .00011843  00000+0  38083-3 0  2575
2 50825  53.1597  29.9013 0001066  80.0176 174.8337 15.31697639    15

Sigue STARLINK-3332 en tiempo real con AllMySat

Download on the App Store